Theta_e
308 307 307 307 308 308 308 308 308 307 308 309 309 309 308 309 308 306 306 303 305 309 314 315 313 313 314 313 310 309 309 312 313 312 312 313 315 318 322 340 357 356 351 348 345
307 307 308 307 308 308 307 307 308 307 308 308 308 308 308 307 307 306 310 311 311 310 314 314 313 312 312 315 313 308 309 311 313 313 313 312 314 316 322 357 357 355 349 345 346
307 307 307 308 307 307 307 307 307 308 308 307 307 307 308 309 305 306 313 313 314 314 315 315 313 311 312 312 314 310 311 311 313 314 313 314 315 317 319 355 355 355 350 345 347
307 307 307 307 307 307 307 307 307 308 308 307 308 309 309 309 308 315 317 313 311 314 318 316 310 310 311 313 313 315 314 311 312 313 315 316 314 315 316 318 351 350 348 347 346
307 307 306 307 306 306 306 306 307 306 306 307 307 308 310 307 307 314 314 308 311 315 315 312 310 309 310 311 312 316 316 314 311 312 313 313 314 315 315 318 348 349 349 347 345
306 306 306 306 306 306 306 306 306 306 307 307 307 309 310 311 308 308 309 309 310 312 312 310 310 308 310 310 311 314 314 315 314 310 312 314 314 316 316 321 347 350 348 346 344
306 306 306 306 307 307 307 308 308 307 307 308 308 310 310 310 308 309 309 309 309 308 308 309 311 314 315 318 315 316 314 314 316 316 312 314 314 315 316 327 348 345 343 341 347
305 306 305 306 306 307 308 308 308 309 309 309 309 310 312 309 309 309 309 309 309 309 309 309 310 314 316 315 318 319 314 317 316 315 314 314 314 315 316 334 348 346 346 350 344
304 306 306 306 307 307 309 310 310 310 310 309 309 308 309 309 310 310 310 309 309 309 309 310 311 313 315 318 319 318 317 317 317 314 314 314 314 315 316 323 343 349 350 343 338
305 305 305 306 306 308 310 312 311 310 311 311 310 310 309 311 311 311 310 309 309 308 307 308 310 314 314 317 321 320 316 316 318 314 313 313 314 315 316 317 323 341 347 340 335
306 305 306 306 307 308 311 311 305 308 311 309 309 310 310 311 310 310 311 310 309 307 307 307 313 314 314 317 319 321 319 317 316 315 314 313 314 315 315 317 315 321 345 340 335
305 306 306 308 310 312 311 309 308 308 309 308 309 309 309 309 311 311 310 309 310 311 307 308 312 313 313 316 319 322 323 322 317 314 313 313 315 315 316 317 315 319 328 335 344
305 305 306 311 312 313 312 310 310 309 308 309 309 310 309 309 311 312 310 311 311 311 310 310 308 311 314 313 315 319 322 323 319 315 315 315 317 316 316 317 315 319 321 344 346
305 306 307 311 312 312 312 311 310 308 307 315 312 312 310 308 312 311 311 311 310 312 312 311 310 309 311 313 313 320 319 323 323 317 316 315 316 315 314 316 317 317 319 340 352
307 307 308 308 311 311 313 311 309 307 317 314 316 314 314 314 311 312 311 310 310 314 313 311 310 309 310 313 313 319 319 322 323 319 316 316 315 317 315 316 315 314 317 332 345
309 309 309 311 311 314 312 309 309 309 317 316 315 316 314 315 314 313 312 310 310 312 312 312 311 313 311 311 313 316 319 321 320 317 318 316 315 315 316 317 316 316 317 327 339
310 312 311 309 312 314 314 308 311 318 316 317 317 315 315 314 315 316 313 312 311 312 313 312 311 311 312 313 313 315 320 323 319 318 319 315 317 314 317 315 316 317 318 323 337
310 314 316 316 315 313 313 312 317 318 319 316 315 314 316 317 314 317 316 315 313 310 312 312 311 311 311 312 317 316 319 328 324 324 317 316 317 317 316 316 317 317 316 318 329
312 314 316 315 315 313 308 311 320 317 317 319 315 316 318 317 314 313 316 315 314 312 312 314 313 312 312 315 316 319 324 321 316 315 317 315 317 316 316 317 317 315 315 315 321
313 314 316 314 316 312 311 318 318 318 317 313 317 317 320 317 317 316 314 313 314 312 310 315 315 315 319 319 318 321 320 319 317 318 317 315 316 317 315 316 317 316 314 321 339
312 312 313 313 315 309 311 318 317 316 317 315 315 314 317 318 317 316 316 314 313 312 312 315 314 316 319 320 322 324 324 319 314 316 316 317 316 315 315 316 317 316 319 340 340
306 311 311 313 311 309 309 314 316 317 317 315 311 311 313 316 318 318 317 316 312 311 314 316 317 321 320 318 318 321 321 318 315 322 322 316 321 330 316 316 318 327 339 339 337
305 308 310 311 308 309 310 314 315 317 318 317 315 314 314 317 319 319 318 315 312 314 317 317 316 320 320 318 320 323 321 317 318 322 327 325 330 337 317 320 337 339 339 337 334
306 307 305 304 306 311 311 312 314 315 317 318 318 316 318 317 318 320 317 319 317 319 318 315 318 320 315 324 323 323 321 319 318 324 325 335 346 338 335 340 339 338 336 334 331
303 305 307 306 308 308 309 310 313 316 316 317 319 319 321 314 315 319 319 320 318 319 317 317 319 320 320 320 322 320 319 320 320 321 324 340 342 341 339 339 337 335 332 329 325
305 306 304 305 307 307 309 310 313 314 316 315 317 317 320 322 322 323 322 320 319 317 317 315 317 322 320 320 323 323 317 320 320 322 335 339 342 335 334 335 335 333 330 325 321
307 308 304 305 305 306 307 310 311 312 312 314 316 315 318 319 318 319 319 321 320 318 316 316 315 322 324 321 321 319 316 323 324 324 334 337 337 334 336 335 334 330 324 322 320
Wind_Speed
21 21 21 22 21 21 21 22 21 21 20 19 19 19 21 21 24 23 9 11 8 8 6 14 11 10 7 4 5 4 3 8 10 10 5 7 3 3 5 8 6 3 23 19 30
23 23 23 23 23 23 24 23 22 20 19 19 18 18 21 22 27 12 8 4 6 11 16 12 9 8 2 3 5 6 7 8 4 5 6 6 6 11 2 3 5 13 13 39 30
23 23 24 24 24 24 24 24 23 20 20 19 17 17 16 19 6 6 9 7 5 8 18 17 15 4 3 2 5 5 8 12 4 8 10 14 7 5 4 3 17 23 22 24 26
24 25 25 25 26 26 25 23 22 21 19 18 17 16 15 12 5 5 6 12 16 8 10 11 5 2 3 5 3 5 3 10 5 7 10 12 6 8 9 11 16 28 28 22 20
25 26 27 26 27 28 27 25 23 21 18 17 15 14 9 2 10 8 12 17 8 2 15 7 5 4 5 3 5 10 6 7 9 15 19 7 11 7 15 14 21 25 26 29 25
27 27 28 28 29 29 28 25 23 20 18 15 13 10 6 11 11 8 7 16 9 7 3 9 7 10 6 7 5 4 7 10 11 12 12 12 8 4 18 14 27 28 26 22 23
30 30 30 30 29 28 27 26 24 20 16 13 10 9 7 18 9 18 20 15 14 12 5 11 19 4 4 5 4 7 10 10 11 17 13 6 9 18 17 4 22 21 19 14 9
32 33 32 30 29 28 30 27 23 17 13 8 6 6 7 16 19 24 15 16 12 12 14 18 10 5 3 4 6 3 3 4 6 13 6 9 13 15 1 10 17 20 16 13 7
35 34 33 30 28 28 24 24 16 5 5 4 3 5 8 10 6 8 12 11 6 8 9 9 5 5 2 2 5 3 4 8 6 8 5 13 9 16 5 6 10 17 15 12 10
35 35 34 30 26 23 20 16 11 6 5 6 3 3 6 3 9 10 9 11 3 2 6 2 3 3 1 4 9 6 5 5 13 6 12 11 11 7 8 7 10 9 12 14 12
36 36 34 27 21 19 15 3 5 4 2 7 6 7 16 11 21 6 14 7 2 3 3 3 2 9 9 9 13 10 10 7 6 9 7 14 5 11 6 4 9 9 8 7 11
37 36 29 21 18 12 3 1 4 3 9 12 17 18 26 14 8 11 4 5 5 4 3 1 14 8 8 12 13 13 13 13 11 8 6 8 10 9 6 4 8 11 10 10 9
38 30 22 19 12 6 2 3 4 8 2 9 5 6 7 13 11 11 4 5 4 4 6 9 5 13 13 11 13 14 11 12 10 6 8 7 2 5 5 5 6 6 10 16 20
36 23 19 22 4 13 3 5 6 3 3 10 1 1 3 5 6 13 12 7 3 8 2 8 9 15 13 15 14 12 13 14 15 8 8 9 6 5 6 4 6 8 9 11 16
28 20 15 14 13 5 5 11 3 3 3 13 4 6 12 11 8 1 2 3 8 7 4 5 6 13 15 14 13 9 10 12 13 12 5 5 6 10 5 6 7 8 9 12 14
24 17 17 8 11 10 6 2 3 5 5 8 6 15 12 6 5 5 3 2 1 6 1 9 7 4 8 14 15 11 10 13 12 6 7 8 6 5 8 15 5 4 7 10 13
22 13 14 14 5 6 8 2 4 5 10 9 14 14 14 5 6 8 14 4 5 5 5 11 16 8 9 5 8 12 10 3 4 4 5 8 9 7 16 7 8 9 8 10 15
20 10 13 20 20 9 5 5 5 4 5 11 11 19 4 5 4 3 5 12 9 4 1 3 6 11 12 9 5 9 5 3 5 5 5 9 8 9 12 9 10 11 10 10 11
19 3 11 15 5 7 5 5 5 4 11 10 15 4 1 3 3 4 4 4 7 16 6 3 5 4 9 12 13 6 7 11 2 1 7 4 2 7 7 8 9 10 9 10 11
11 8 9 8 1 6 5 1 4 4 7 1 4 4 4 8 3 3 2 3 4 9 13 2 4 2 12 15 10 10 8 6 2 8 7 3 5 7 10 10 11 13 10 10 16
6 4 13 14 2 5 2 3 5 12 2 2 3 4 5 4 4 3 6 3 8 3 7 4 3 7 8 7 7 5 5 4 0 6 5 6 7 6 9 12 14 12 12 19 19
6 3 14 17 4 2 3 8 4 11 1 2 1 2 4 5 5 4 4 3 9 7 6 5 3 4 2 5 16 11 2 2 3 3 2 5 3 8 9 16 17 15 19 20 22
4 3 10 13 3 4 7 7 3 6 7 1 4 7 5 3 4 7 5 3 8 3 6 5 2 3 2 5 6 6 6 5 2 1 1 5 4 9 9 17 23 23 22 20 23
3 4 4 4 2 2 6 6 12 7 4 7 4 5 5 5 3 7 2 5 0 6 8 4 3 4 3 2 5 6 5 6 4 1 4 1 9 7 22 25 24 24 23 22 21
4 2 1 5 5 10 4 7 11 12 2 8 3 15 9 2 4 7 3 1 3 4 3 4 0 2 4 7 2 6 10 6 4 5 5 9 19 9 20 26 25 24 23 24 21
2 3 4 4 7 7 5 8 11 13 4 12 9 17 8 3 5 9 6 2 1 0 2 2 2 2 1 10 3 10 7 5 5 2 9 15 13 3 6 22 23 23 24 23 20
6 6 2 4 6 5 4 8 16 12 8 12 9 8 7 10 11 13 9 8 4 5 2 1 2 3 4 8 5 4 5 6 5 4 8 12 8 7 15 17 22 22 22 23 21
Wind_Direction
347 343 340 335 331 329 328 325 322 321 319 319 320 321 319 317 312 307 253 251 241 258 314 309 313 299 291 241 211 156 201 221 216 204 249 287 334 225 312 201 87 269 169 160 152
343 339 337 331 328 326 324 323 320 318 317 319 317 317 317 324 319 262 305 311 291 256 259 260 295 327 258 241 210 176 211 227 207 231 264 281 233 289 332 32 84 100 136 143 143
338 335 332 328 326 324 321 320 317 314 313 312 310 308 315 323 307 247 89 40 327 285 242 237 257 311 237 216 240 211 230 233 282 242 268 270 317 332 282 196 156 143 149 149 141
336 333 330 327 323 321 318 313 312 310 308 306 306 307 313 323 309 172 135 343 323 345 168 183 220 242 251 221 267 280 255 241 304 289 266 272 305 309 288 257 206 153 158 151 147
335 333 331 328 324 320 318 312 308 306 305 302 303 305 314 278 247 206 264 314 295 164 159 172 197 172 253 267 343 248 284 279 235 255 267 292 280 294 284 293 174 158 161 165 169
335 333 330 328 325 321 320 315 312 306 299 293 292 292 267 264 250 291 318 305 293 316 265 164 211 199 261 239 202 281 312 283 251 257 264 258 295 288 280 298 179 164 164 169 173
334 330 330 327 323 321 317 314 309 298 289 286 275 267 250 246 261 285 290 287 295 275 277 240 220 251 160 308 341 290 274 280 256 243 256 132 268 246 261 251 147 159 174 171 121
334 331 330 328 325 323 320 315 308 295 283 277 264 231 256 266 291 283 281 280 275 269 268 284 199 157 156 299 334 294 203 241 248 226 233 169 253 257 271 186 172 153 163 150 126
336 331 331 330 327 327 333 335 326 284 246 185 175 180 258 294 264 298 241 239 261 307 304 291 155 154 44 30 331 246 249 227 294 202 209 184 232 246 165 167 151 148 152 145 137
335 332 331 331 328 333 341 345 3 105 122 169 258 230 264 265 325 269 196 203 203 317 354 56 33 149 74 152 220 216 209 247 221 201 200 218 233 264 158 148 158 174 162 156 150
336 336 334 333 337 336 341 8 5 4 250 200 197 226 292 292 322 230 184 186 230 133 185 273 205 219 210 231 247 273 286 272 286 240 161 214 230 226 184 151 152 176 167 171 164
338 339 337 342 345 336 315 342 132 244 302 259 248 250 250 269 299 304 225 140 163 202 201 268 229 220 231 243 253 256 265 269 286 239 178 176 224 236 169 165 175 166 164 174 136
348 348 342 342 338 353 269 348 21 2 280 293 212 218 230 190 223 262 203 137 174 215 218 233 272 218 237 269 261 242 247 255 249 255 201 126 271 205 216 163 150 210 160 143 151
354 351 340 340 341 332 274 338 356 74 51 359 251 20 42 213 218 233 214 162 155 203 290 256 238 233 227 235 248 245 237 249 267 266 203 171 208 250 218 196 161 193 160 145 147
359 351 332 326 305 308 284 325 335 104 56 329 349 350 358 314 315 338 139 145 204 154 114 254 258 211 224 228 231 239 240 247 272 259 161 149 112 227 110 217 210 201 189 146 149
354 344 321 317 303 271 281 290 86 45 347 339 313 330 305 290 266 268 168 134 117 123 174 245 252 254 219 228 229 235 308 267 265 225 222 180 129 222 211 210 135 166 201 142 144
351 326 312 293 264 298 302 13 31 60 324 319 317 320 318 287 273 244 239 215 184 171 236 253 245 218 195 227 226 199 263 250 161 156 194 185 164 212 219 157 164 166 185 139 151
345 321 308 293 293 321 301 28 41 348 267 300 314 314 213 1 317 308 218 227 213 227 317 278 314 183 177 201 119 193 205 248 114 149 155 166 201 212 195 153 155 156 166 131 155
350 323 302 319 295 237 51 37 330 322 294 306 320 285 287 57 353 330 259 217 193 195 190 252 240 151 158 144 135 187 199 221 304 116 128 194 147 124 127 155 162 165 137 146 166
349 338 302 342 196 55 57 262 285 256 305 290 313 327 313 346 312 262 260 206 222 179 200 114 302 258 123 105 158 228 335 190 243 163 130 190 162 183 176 172 171 169 148 94 97
16 23 352 355 262 37 77 229 248 331 336 249 296 292 307 303 292 292 276 254 197 127 113 114 91 302 138 157 190 174 240 231 77 178 147 140 201 203 171 164 168 160 116 115 107
1 17 359 8 39 353 328 301 305 330 95 143 280 254 253 301 306 293 243 265 182 142 137 159 153 274 323 73 182 273 261 201 133 107 55 118 297 311 190 171 144 119 116 115 113
344 270 343 19 49 323 305 303 297 324 333 272 236 216 257 274 300 262 237 180 126 108 160 174 150 282 52 43 31 286 268 212 267 327 157 125 249 328 153 127 121 118 118 115 112
25 1 333 15 54 343 319 318 338 332 333 322 268 263 252 321 275 303 347 42 115 119 109 110 158 213 172 171 176 223 228 232 193 116 171 143 121 57 120 119 120 119 120 118 114
26 342 129 309 322 326 303 342 337 347 5 340 307 340 335 102 308 310 334 174 31 34 79 145 133 252 175 242 308 207 273 188 134 196 94 145 117 108 124 123 125 123 120 116 116
59 8 334 270 290 322 359 334 334 342 308 333 353 337 320 300 290 308 324 288 161 164 66 349 213 293 75 260 142 247 250 173 76 80 95 127 105 131 107 117 124 126 125 119 121
346 302 117 279 321 356 315 317 320 338 301 329 332 332 311 321 304 274 230 265 281 155 142 72 125 43 273 142 223 317 230 116 59 52 138 147 144 142 130 129 133 127 123 125 124